Location: Newark
(41.0400°S, 62.7845°W)
Time: 03:17:46
(UTC+00:00)

Transit 2A - Pass Details

Date: 09 December 2021
Orbit: 591 x 967 km, 66.7° (Epoch: 20 January)

Event Time Altitude Azimuth Distance (km) Brightness Sun altitude
Rises 15:05:04 0° 323° (NW) 3,197 9.3 68.1°
Reaches altitude 10° 15:07:35 10° 319° (NW) 2,219 8.6 68.4°
Maximum altitude 15:12:32 61° 238° (WSW) 772 6.8 68.9°
Drops below altitude 10° 15:17:06 10° 157° (SSE) 2,046 8.2 69.4°
Sets 15:19:20 0° 153° (SSE) 2,925 8.9 69.6°
